Location: *
(49.9853°N, 3.5569°E)
Time: 22:25:47
(UTC+00:00)

GENESIS II - Pass Details

Date: 22 September 2019
Orbit: 479 x 550 km, 64.5° (Epoch: 20 October)

Event Time Altitude Azimuth Distance (km) Brightness Sun altitude
Rises 18:30:18 0° 320° (NW) 2,732 8.8 -8.1°
Reaches altitude 10° 18:32:32 10° 322° (NW) 1,835 7.8 -8.5°
Maximum altitude 18:36:40 74° 47° (NE) 575 4.3 -9.1°
Drops below altitude 10° 18:40:44 10° 134° (SE) 1,809 6.4 -9.8°
Enters shadow 18:40:52 - 134° (SE) 1,864 6.5 -9.8°
